Regional Weather Roundup
Issued by NWS

Home | Current Version | Previous Version | Text Only | Print | Product List | Glossary On
Versions: 1 2 3 4 5 6 7 8 9 10 11 12 13 14 15 16 17 18 19 20 21 22 23 24 25 26 27 28 29 30 31 32 33 34 35 36 37 38 39 40 41 42 43 44 45 46 47 48 49 50
000
ASUS43 KFSD 012110
RWRSD

WEATHER ROUNDUP FOR SOUTH DAKOTA
NATIONAL WEATHER SERVICE SIOUX FALLS SD
400 PM CDT MON SEP 01 2014

NOTE: "FAIR" INDICATES FEW OR NO CLOUDS BELOW 12,000 FEET WITH NO
SIGNIFICANT WEATHER AND/OR OBSTRUCTIONS TO VISIBILITY.


SDZ001>005-009-010-012>017-012200-
NORTHWEST AND NORTH CENTRAL SOUTH DAKOTA

CITY           SKY/WX    TMP DP  RH WIND       PRES   REMARKS
BUFFALO          N/A     66  49  54 W6        29.86S
FAITH            N/A     68  47  46 NW15G25   29.87S
MOBRIDGE       MOSUNNY   75  54  47 N9        29.79F
$$

SDZ012>016-024>037-041>051-057-063-072>074-012200-
SOUTHWEST AND SOUTH CENTRAL SOUTH DAKOTA

CITY           SKY/WX    TMP DP  RH WIND       PRES   REMARKS
RAPID CTY ARPT LGT RAIN  59  51  75 N14       29.96F
PIERRE         CLOUDY    76  49  38 SW12      29.79F
CUSTER         PTSUNNY   58  43  57 NW8G17    30.01F
ELLSWORTH AFB  LGT RAIN  57  52  82 N6        29.97
PHILIP         PTSUNNY   74  46  36 NW9       29.85F
PINE RIDGE     MOSUNNY   74  45  35 NW10G17   29.88F
WINNER         FAIR      79  48  33 VRB5      29.84F
$$

SDZ004>011-016>023-039-040-012200-
NORTHEAST SOUTH DAKOTA

CITY           SKY/WX    TMP DP  RH WIND       PRES   REMARKS
ABERDEEN       SUNNY     74  54  49 NW10      29.77F
WATERTOWN      SUNNY     75  53  46 W10       29.80F
SISSETON         N/A     76  54  46 NW12      29.74F
$$

SDZ017-020-022-023-036>040-048>070-012200-
SOUTHEAST SOUTH DAKOTA

CITY           SKY/WX    TMP DP  RH WIND       PRES   REMARKS
SIOUX FALLS    MOSUNNY   76  59  55 NW8       29.84F
HURON          PTSUNNY   78  52  40 VRB5      29.80F
CHAMBERLAIN    MOSUNNY   78  51  39 SW7       29.83F
MITCHELL       MOSUNNY   78  55  44 W8        29.83F
YANKTON        SUNNY     75  57  53 NW8       29.85S
$$

ABBREVIATIONS USED IN REMARKS
   TC - TEMPERATURE IN CELSIUS
  WCI - WIND CHILL INDEX
   HX - HEAT INDEX
  VSB - VISIBILITY



USA.gov is the U.S. government's official web portal to all federal, state and local government web resources and services.